Skip Page Navigation
NASA JPL Caltech
NASA Logo - Jet Propulsion Laboratory + View the NASA Portal
+ Center for Near-Earth Object Studies
JPL Home Earth Solar System Stars & Galaxies Technology
JPL Solar System Dynamics
BODIES ORBITS EPHEMERIDES TOOLS PHYSICAL DATA DISCOVERY FAQ SITE MAP
IMPORTANT: The SSD Announcement email list is now available. Major changes are coming in the near future, including possible hostname and/or URL changes. To be notified of such changes, subscribe to this email list.

Please visit this page for more details.


JPL Small-Body Database Browser
Search: [ help ]  
27013 (1998 FU60)
Classification: Main-belt Asteroid          SPK-ID: 2027013
Ephemeris | Orbit Diagram | Orbital Elements | Mission Design | Physical Parameters | Discovery Circumstances | Close-Approach Data ]

[ show orbit diagram ]
Orbital Elements at Epoch 2458600.5 (2019-Apr-27.0) TDB
Reference: JPL 22 (heliocentric ecliptic J2000)
 Element Value Uncertainty (1-sigma)   Units 
e .1769210649186783 4.3716e-08  
a 2.693049079370262 1.4197e-08 au
q 2.216591968369809 1.1736e-07 au
i 3.962046579419518 4.9157e-06 deg
node 180.217235906538 6.939e-05 deg
peri 356.8689697206461 7.0915e-05 deg
M 285.1734869792563 1.7194e-05 deg
tp 2458936.019553909361
(2020-Mar-27.51955391)
7.8734e-05 TDB
period 1614.22782555543
4.42
1.2765e-05
3.495e-08
d
yr
n .2230168470030738 1.7636e-09 deg/d
Q 3.169506190370715 1.6709e-08 au
  Orbit Determination Parameters
   # obs. used (total)      1135  
   data-arc span      21622 days (59.20 yr)  
   first obs. used      1960-09-24  
   last obs. used      2019-12-06  
   planetary ephem.      DE431  
   SB-pert. ephem.      SB431-N16  
   condition code      0  
   norm. resid. RMS      .55947  
   source      ORB  
   producer      Otto Matic  
   solution date      2019-Dec-14 01:33:49  

Additional Information
 Earth MOID = 1.22118 au 
 Jupiter MOID = 1.7949 au 
 T_jup = 3.345 
[ show covariance matrix ]

Ephemeris | Orbit Diagram | Orbital Elements | Mission Design | Physical Parameters | Discovery Circumstances | Close-Approach Data ]

Physical Parameter Table
Parameter Symbol Value Units Sigma Reference Notes
absolute magnitude H 14.7   n/a MPO381475  
diameter diameter 6.642 km 0.121 urn:nasa:pds:neowise_diameters_albedos::2.0[mainbelt] (http://adsabs.harvard.edu/abs/2011ApJ...741...68M)  
geometric albedo albedo 0.070   0.011 urn:nasa:pds:neowise_diameters_albedos::2.0[mainbelt] (http://adsabs.harvard.edu/abs/2011ApJ...741...68M)  

27013 (1998 FU60)          Discovered 1998-Mar-20 by LINEAR at Socorro
Reference: 20010804/Numbers.arcLast Updated: 2004-04-19

[ show close-approach data ]
Alternate Designations
 1998 FU60 = 4824 P-L 
Ephemeris | Orbit Diagram | Orbital Elements | Mission Design | Physical Parameters | Discovery Circumstances | Close-Approach Data ]
ABOUT SSD CREDITS/AWARDS PRIVACY/COPYRIGHT GLOSSARY LINKS
FirstGov 2020-Jan-20 06:41 UT
(server date/time)  
NASA Home Page
Site Manager:   Ryan S. Park
Webmaster  Alan B. Chamberlin